| time (UTC) | temp F | wind direction | speed MPH | gust MPH | rain 1hr in | rain 24hr in | rain mn in | humidity % | barometer mb |
| 20260504044541 | 0 | 67 | 18.0 | 30.0 | 0.00 | 0.00 | 0.00 | 998.1 | |
| 20260504043039 | 0 | 63 | 20.0 | 28.0 | 0.00 | 0.00 | 0.00 | 998.1 | |
| 20260504041532 | 0 | 53 | 19.0 | 30.0 | 0.00 | 0.00 | 0.00 | 997.7 | |
| 20260504040029 | 0 | 63 | 15.0 | 30.0 | 0.00 | 0.00 | 0.00 | 997.1 | |
| 20260504034523 | 0 | 92 | 13.0 | 25.0 | 0.00 | 0.00 | 0.00 | 996.9 | |
| 20260504033019 | 0 | 70 | 12.0 | 23.0 | 0.00 | 0.00 | 0.00 | 996.4 | |
| 20260504031515 | 0 | 72 | 12.0 | 25.0 | 0.00 | 0.00 | 0.00 | 996.5 | |
| 20260504030010 | 0 | 61 | 15.0 | 24.0 | 0.00 | 0.00 | 0.00 | 996.3 | |
| 20260504024508 | 0 | 68 | 11.0 | 23.0 | 0.00 | 0.00 | 0.00 | 996.2 | |
| 20260504023106 | 0 | 64 | 12.0 | 23.0 | 0.00 | 0.00 | 0.00 | 996.2 | |
| 20260504021606 | 0 | 65 | 10.0 | 18.0 | 0.00 | 0.00 | 0.00 | 996.2 | |
| 20260504020053 | 0 | 65 | 7.0 | 14.0 | 0.00 | 0.00 | 0.00 | 996.4 | |
| 20260504014548 | 0 | 48 | 3.0 | 9.0 | 0.00 | 0.00 | 0.00 | 996.5 | |
| 20260504013043 | 0 | 336 | 5.0 | 11.0 | 0.00 | 0.00 | 0.00 | 996.6 | |
| 20260504011539 | 0 | 346 | 8.0 | 15.0 | 0.00 | 0.00 | 0.00 | 996.6 | |
| 20260504010035 | 0 | 325 | 5.0 | 12.0 | 0.00 | 0.00 | 0.00 | 996.6 | |
| 20260504004530 | 0 | 340 | 8.0 | 14.0 | 0.00 | 0.00 | 0.00 | 996.6 | |
| 20260504003039 | 0 | 313 | 8.0 | 14.0 | 0.00 | 0.00 | 0.00 | 996.7 | |
| 20260504001524 | 0 | 34 | 7.0 | 19.0 | 0.00 | 0.00 | 0.00 | 996.8 | |
| 20260504000019 | 0 | 321 | 9.0 | 16.0 | 0.00 | 0.00 | 0.00 | 996.9 | |
| 20260503234514 | 0 | 300 | 6.0 | 20.0 | 0.00 | 0.00 | 0.00 | 997.0 | |
| 20260503233010 | 0 | 342 | 8.0 | 18.0 | 0.00 | 0.00 | 0.00 | 997.2 | |
| 20260503231506 | 0 | 346 | 9.0 | 21.0 | 0.00 | 0.00 | 0.00 | 997.2 | |
| 20260503230002 | 0 | 332 | 11.0 | 19.0 | 0.00 | 0.00 | 0.00 | 997.3 | |
| 20260503224557 | 0 | 320 | 10.0 | 19.0 | 0.00 | 0.00 | 0.00 | 997.4 | |
| 20260503223053 | 0 | 329 | 8.0 | 18.0 | 0.00 | 0.00 | 0.00 | 997.4 | |
| 20260503221549 | 0 | 331 | 10.0 | 20.0 | 0.00 | 0.00 | 0.00 | 997.7 | |
| 20260503220045 | 0 | 318 | 9.0 | 19.0 | 0.00 | 0.00 | 0.00 | 997.7 | |
| 20260503214539 | 0 | 296 | 9.0 | 19.0 | 0.00 | 0.00 | 0.00 | 997.9 | |
| 20260503213035 | 0 | 22 | 10.0 | 18.0 | 0.00 | 0.00 | 0.00 | 998.0 | |
| 20260503211531 | 0 | 327 | 9.0 | 20.0 | 0.00 | 0.00 | 0.00 | 998.3 | |
| 20260503210027 | 0 | 250 | 9.0 | 16.0 | 0.00 | 0.00 | 0.00 | 998.6 | |
| 20260503204522 | 0 | 322 | 10.0 | 22.0 | 0.00 | 0.00 | 0.00 | 998.9 | |
| 20260503203019 | 0 | 34 | 7.0 | 18.0 | 0.00 | 0.00 | 0.00 | 998.8 | |
| 20260503201513 | 0 | 336 | 11.0 | 27.0 | 0.00 | 0.00 | 0.00 | 998.9 | |
| 20260503200009 | 0 | 318 | 9.0 | 19.0 | 0.00 | 0.00 | 0.00 | 999.2 | |
| 20260503194504 | 0 | 304 | 11.0 | 20.0 | 0.00 | 0.00 | 0.00 | 999.7 | |
| 20260503193104 | 0 | 316 | 7.0 | 20.0 | 0.00 | 0.00 | 0.00 | 999.7 | |
| 20260503191555 | 0 | 309 | 10.0 | 20.0 | 0.00 | 0.00 | 0.00 | 1000.0 | |
| 20260503190051 | 0 | 288 | 8.0 | 15.0 | 0.00 | 0.00 | 0.00 | 1000.0 | |
| 20260503184603 | 0 | 304 | 9.0 | 15.0 | 0.00 | 0.00 | 0.00 | 1000.3 | |
| 20260503183047 | 0 | 309 | 8.0 | 15.0 | 0.00 | 0.00 | 0.00 | 1000.3 | |
| 20260503181537 | 0 | 341 | 6.0 | 14.0 | 0.00 | 0.00 | 0.00 | 1000.4 | |
| 20260503180036 | 0 | 294 | 7.0 | 14.0 | 0.00 | 0.00 | 0.00 | 1000.5 | |
| 20260503174532 | 0 | 323 | 7.0 | 14.0 | 0.00 | 0.00 | 0.00 | 1000.6 | |
| 20260503173032 | 0 | 40 | 7.0 | 14.0 | 0.00 | 0.00 | 0.00 | 1001.1 | |
| 20260503171519 | 0 | 29 | 8.0 | 18.0 | 0.00 | 0.00 | 0.00 | 1001.1 | |
| 20260503090117 | 0 | 321 | 4.0 | 7.0 | 0.00 | 0.00 | 0.00 | 1003.2 | |
| 20260503081544 | 0 | 325 | 4.0 | 7.0 | 0.00 | 0.00 | 0.00 | 1003.8 | |
| 20260503071535 | 0 | 347 | 4.0 | 6.0 | 0.00 | 0.00 | 0.00 | 1004.0 |